Terminal Aerodrome Forecast
Issued by NWS St Louis, MO

Home | Current Version | Previous Version | Text Only | Print | Product List | Glossary On
Versions: 1 2 3 4 5 6 7 8 9 10 11 12 13 14 15 16 17 18 19 20 21 22
225
FTUS43 KLSX 190413 AAD
TAFCOU
TAF AMD
KCOU 190413Z 1904/1924 VRB04KT 1/4SM FG VV002
     FM191400 17008KT P6SM SCT030 BKN250=

USA.gov is the U.S. government's official web portal to all federal, state and local government web resources and services.